DW0275 Weather Reports


time (UTC)temp
C
wind
direction
speed
KPH
gust
KPH
rain 1hr
cm
rain 24hr
cm
rain mn
cm
humidity
%
barometer
mb
20260902100819 25 74 0.0 0.0 0.00 0.00 0.00 93 1015.7
20260902100316 25 74 0.0 0.0 0.00 0.00 0.00 93 1015.7
20260902100029 25 74 0.0 0.0 0.00 0.00 0.00 93 1015.4
20260902095833 25 74 0.0 0.0 0.00 0.00 0.00 93 1015.5
20260902095330 25 74 0.0 0.0 0.00 0.00 0.00 93 1015.2
20260902094827 25 74 0.0 0.0 0.00 0.00 0.00 93 1015.1
20260902094517 25 74 0.0 0.0 0.00 0.00 0.00 93 1015.0
20260902094343 25 74 0.0 0.0 0.00 0.00 0.00 93 1015.0
20260902093819 25 74 0.0 0.0 0.00 0.00 0.00 93 1015.0
20260902093315 25 74 0.0 0.0 0.00 0.00 0.00 93 1015.0
20260902093041 25 74 0.0 0.0 0.00 0.00 0.00 93 1014.9
20260902092855 25 74 0.0 0.0 0.00 0.00 0.00 93 1015.0
20260902092330 25 101 0.0 0.0 0.00 0.00 0.00 93 1015.0
20260902091825 25 123 0.0 0.0 0.00 0.00 0.00 93 1015.2
20260902091504 25 123 0.0 0.0 0.00 0.00 0.00 93 1015.0
20260902091321 25 123 0.0 0.0 0.00 0.00 0.00 93 1015.1
20260902090816 25 123 0.0 0.0 0.00 0.00 0.00 93 1015.0
20260902090332 25 123 0.0 0.0 0.00 0.00 0.00 93 1015.1
20260902090047 25 123 0.0 0.0 0.00 0.00 0.00 93 1015.0
20260902085828 25 123 0.0 0.0 0.00 0.00 0.00 93 1015.1
20260902085325 25 123 0.0 0.0 0.00 0.00 0.00 93 1015.0
20260902084821 25 123 0.0 0.0 0.00 0.00 0.00 92 1015.0
20260902084528 25 123 0.0 0.0 0.00 0.00 0.00 92 1015.0
20260902084339 25 123 0.0 0.0 0.00 0.00 0.00 92 1015.1
20260902083815 25 123 0.0 0.0 0.00 0.00 0.00 92 1015.1
20260902083330 25 123 0.0 0.0 0.00 0.00 0.00 92 1015.1
20260902083057 25 123 0.0 0.0 0.00 0.00 0.00 92 1015.1
20260902082827 25 123 0.0 0.0 0.00 0.00 0.00 92 1015.2
20260902082324 25 123 0.0 0.0 0.00 0.00 0.00 92 1015.2
20260902081820 25 123 0.0 0.0 0.00 0.00 0.00 92 1015.3
20260902081536 25 123 0.0 0.0 0.00 0.00 0.00 92 1015.1
20260902081336 25 123 0.0 0.0 0.00 0.00 0.00 92 1015.2
20260902080853 26 123 0.0 0.0 0.00 0.00 0.00 92 1015.2
20260902080327 26 123 0.0 0.0 0.00 0.00 0.00 92 1015.1
20260902080055 25 123 0.0 0.0 0.00 0.00 0.00 92 1015.0
20260902075826 26 123 0.0 0.0 0.00 0.00 0.00 92 1015.1
20260902075322 26 123 0.0 0.0 0.00 0.00 0.00 91 1015.2
20260902074819 26 123 0.0 0.0 0.00 0.00 0.00 91 1015.2
20260902074541 25 123 0.0 0.0 0.00 0.00 0.00 91 1015.1
20260902074315 26 123 0.0 0.0 0.00 0.00 0.00 91 1015.2
20260902073832 26 123 0.0 0.0 0.00 0.00 0.00 91 1015.2
20260902073329 26 123 0.0 0.0 0.00 0.00 0.00 91 1015.2
20260902073022 26 123 0.0 0.0 0.00 0.00 0.00 91 1015.1
20260902072846 26 123 0.0 0.0 0.00 0.00 0.00 91 1015.2
20260902072322 26 123 0.0 0.0 0.00 0.00 0.00 91 1015.2
20260902071819 26 123 0.0 1.6 0.00 0.00 0.00 91 1015.3
20260902071550 26 123 0.0 1.6 0.00 0.00 0.00 91 1015.1
20260902071315 26 123 0.0 3.2 0.00 0.00 0.00 91 1015.3
20260902070832 26 123 0.0 3.2 0.00 0.00 0.00 91 1015.3
20260902070328 26 136 0.0 1.6 0.00 0.00 0.00 91 1015.3
20260902070034 26 136 0.0 1.6 0.00 0.00 0.00 91 1015.2
20260902065827 26 136 0.0 1.6 0.00 0.00 0.00 91 1015.3
20260902065323 26 136 0.0 3.2 0.00 0.00 0.00 91 1015.4
20260902064819 26 141 0.0 4.8 0.00 0.00 0.00 91 1015.3
20260902064517 26 79 0.0 6.4 0.00 0.00 0.00 91 1015.2
20260902064317 26 105 0.0 6.4 0.00 0.00 0.00 91 1015.4
20260902063832 26 129 1.6 6.4 0.00 0.00 0.00 91 1015.5
20260902063329 26 77 1.6 9.7 0.00 0.00 0.00 91 1015.6
20260902063003 26 127 3.2 9.7 0.00 0.00 0.00 91 1015.5
20260902062847 26 127 1.6 8.0 0.00 0.00 0.00 91 1015.8
20260902062343 26 136 3.2 9.7 0.00 0.00 0.00 91 1015.9
20260902061818 26 124 1.6 6.4 0.00 0.00 0.00 91 1015.9
20260902061600 26 131 1.6 6.4 0.00 0.00 0.00 91 1015.7
20260902061502 26 136 1.6 6.4 0.00 0.00 0.00 91 1015.7
20260902061315 26 111 1.6 6.4 0.00 0.00 0.00 91 1015.8
20260902060827 26 143 0.0 3.2 0.00 0.00 0.00 92 1015.7
20260902060323 26 123 0.0 0.0 0.00 0.00 0.00 92 1015.7
20260902060042 26 61 0.0 0.0 0.00 0.00 0.00 92 1015.5
20260902055822 26 49 0.0 0.0 0.00 0.00 0.00 92 1015.6
20260902055338 26 322 0.0 0.0 0.00 0.00 0.00 92 1015.6
20260902054834 26 354 0.0 0.0 0.00 0.00 0.00 92 1015.6
20260902054506 26 354 0.0 0.0 0.00 0.00 0.00 92 1015.5
20260902054330 26 16 0.0 0.0 0.00 0.00 0.00 92 1015.6
20260902053827 26 56 0.0 0.0 0.00 0.00 0.00 92 1015.8
20260902053345 26 98 0.0 0.0 0.00 0.00 0.00 92 1015.9
20260902053026 26 98 0.0 0.0 0.00 0.00 0.00 92 1015.7
20260902052819 26 98 0.0 0.0 0.00 0.00 0.00 92 1016.0
20260902052317 26 98 0.0 0.0 0.00 0.00 0.00 93 1016.0
20260902051831 26 98 0.0 0.0 0.00 0.00 0.00 93 1016.0
20260902051512 26 135 0.0 0.0 0.00 0.00 0.00 93 1015.9
20260902051328 26 136 0.0 0.0 0.00 0.00 0.00 93 1016.1
20260902050824 26 33 0.0 0.0 0.00 0.00 0.00 93 1016.1
20260902050320 26 27 0.0 0.0 0.00 0.00 0.00 93 1016.0
20260902050107 26 27 0.0 0.0 0.00 0.00 0.00 93 1015.9
20260902050008 26 27 0.0 0.0 0.00 0.00 0.00 93 1015.9
20260902045815 26 27 0.0 0.0 0.00 0.00 0.00 93 1016.1
20260902045329 26 27 0.0 0.0 0.00 0.00 0.00 92 1016.0
20260902044827 26 27 0.0 0.0 0.00 0.00 0.00 93 1016.1
20260902044522 26 27 0.0 0.0 0.00 0.00 0.00 93 1016.0
20260902044323 26 27 0.0 0.0 0.00 0.00 0.00 93 1016.1
20260902043821 26 27 0.0 0.0 0.00 0.00 0.00 92 1016.0
20260902043318 26 27 0.0 0.0 0.00 0.00 0.00 92 1015.9
20260902043024 26 27 0.0 0.0 0.00 0.00 0.00 92 1015.9
20260902042833 26 27 0.0 0.0 0.00 0.00 0.00 92 1016.1
20260902042330 26 27 0.0 0.0 0.00 0.00 0.00 92 1016.1
20260902041827 26 27 0.0 0.0 0.00 0.00 0.00 92 1016.0
20260902041557 26 27 0.0 0.0 0.00 0.00 0.00 92 1015.9
20260902041324 26 27 0.0 0.0 0.00 0.00 0.00 92 1016.1
20260902040822 26 27 0.0 0.0 0.00 0.00 0.00 92 1016.2
20260902040318 26 27 0.0 0.0 0.00 0.00 0.00 92 1016.2
20260902040022 26 27 0.0 0.0 0.00 0.00 0.00 92 1016.1
20260902035815 26 27 0.0 0.0 0.00 0.00 0.00 92 1016.3
20260902035332 26 27 0.0 0.0 0.00 0.00 0.00 92 1016.3
20260902034849 26 27 0.0 0.0 0.00 0.00 0.00 92 1016.3
20260902034541 26 27 0.0 0.0 0.00 0.00 0.00 92 1016.1
20260902034325 26 27 0.0 0.0 0.00 0.00 0.00 92 1016.2
20260902033822 26 27 0.0 0.0 0.00 0.00 0.00 91 1016.3
20260902033319 26 27 0.0 0.0 0.00 0.00 0.00 91 1016.4
20260902033024 26 27 0.0 0.0 0.00 0.00 0.00 91 1016.3
20260902032818 26 27 0.0 0.0 0.00 0.00 0.00 91 1016.5
20260902032333 26 27 0.0 0.0 0.00 0.00 0.00 91 1016.5
20260902031850 26 27 0.0 0.0 0.00 0.00 0.00 91 1016.6
20260902031600 26 27 0.0 0.0 0.00 0.00 0.00 91 1016.5
20260902031327 26 27 0.0 0.0 0.00 0.00 0.00 91 1016.5
20260902030839 26 27 0.0 0.0 0.00 0.00 0.00 91 1016.6
20260902030316 26 27 0.0 0.0 0.00 0.00 0.00 90 1016.7
20260902030012 26 27 0.0 0.0 0.00 0.00 0.00 90 1016.6
20260902025832 26 27 0.0 0.0 0.00 0.00 0.00 90 1016.8
20260902025328 26 27 0.0 0.0 0.00 0.00 0.00 90 1016.8
20260902024825 27 27 0.0 0.0 0.00 0.00 0.00 90 1016.7
20260902024559 26 27 0.0 0.0 0.00 0.00 0.00 90 1016.6
20260902024322 27 27 0.0 0.0 0.00 0.00 0.00 90 1016.6
20260902023820 27 56 0.0 0.0 0.00 0.00 0.00 90 1016.7
20260902023337 27 74 0.0 0.0 0.00 0.00 0.00 90 1016.8
20260902023020 26 74 0.0 0.0 0.00 0.00 0.00 90 1016.6
20260902022833 27 74 0.0 0.0 0.00 0.00 0.00 90 1016.8
20260902022351 27 74 0.0 0.0 0.00 0.00 0.00 89 1016.8
20260902021825 27 74 0.0 0.0 0.00 0.00 0.00 89 1016.6
20260902021537 27 74 0.0 0.0 0.00 0.00 0.00 89 1016.4
20260902021343 27 74 0.0 0.0 0.00 0.00 0.00 89 1016.5
20260902020841 27 77 0.0 0.0 0.00 0.00 0.00 89 1016.6
20260902020318 27 97 0.0 0.0 0.00 0.00 0.00 89 1016.6
20260902020040 27 97 0.0 0.0 0.00 0.00 0.00 89 1016.6
20260902015815 27 97 0.0 0.0 0.00 0.00 0.00 89 1016.7
20260902015331 27 97 0.0 0.0 0.00 0.00 0.00 89 1016.6
20260902014829 27 97 0.0 0.0 0.00 0.00 0.00 89 1016.5
20260902014529 27 97 0.0 0.0 0.00 0.00 0.00 89 1016.4
20260902014327 27 97 0.0 0.0 0.00 0.00 0.00 89 1016.5
20260902013823 27 97 0.0 0.0 0.00 0.00 0.00 88 1016.5
20260902013321 27 97 0.0 0.0 0.00 0.00 0.00 88 1016.4
20260902013056 27 97 0.0 0.0 0.00 0.00 0.00 88 1016.3
20260902012816 27 97 0.0 0.0 0.00 0.00 0.00 88 1016.4
20260902012333 27 97 0.0 0.0 0.00 0.00 0.00 88 1016.3
20260902011831 27 97 0.0 0.0 0.00 0.00 0.00 88 1016.2
20260902011545 26 97 0.0 0.0 0.00 0.00 0.00 88 1016.2
20260902011327 27 97 0.0 0.0 0.00 0.00 0.00 88 1016.3
20260902010825 27 97 0.0 0.0 0.00 0.00 0.00 88 1016.0
20260902010322 27 97 0.0 0.0 0.00 0.00 0.00 87 1015.9
20260902010029 27 97 0.0 0.0 0.00 0.00 0.00 86 1015.8
20260902005817 27 97 0.0 0.0 0.00 0.00 0.00 86 1015.9
20260902005333 27 97 0.0 0.0 0.00 0.00 0.00 85 1015.9
20260902004832 28 97 0.0 0.0 0.00 0.00 0.00 85 1015.9
20260902004556 27 97 0.0 0.0 0.00 0.00 0.00 85 1015.7
20260902004329 28 97 0.0 0.0 0.00 0.00 0.00 85 1015.8
20260902003827 28 97 0.0 0.0 0.00 0.00 0.00 85 1015.8
20260902003323 28 97 0.0 0.0 0.00 0.00 0.00 85 1015.8
20260902003043 27 97 0.0 0.0 0.00 0.00 0.00 85 1015.6
20260902002820 28 97 0.0 0.0 0.00 0.00 0.00 84 1015.8
20260902002317 28 97 0.0 0.0 0.00 0.00 0.00 84 1015.7
20260902001832 28 109 0.0 0.0 0.00 0.00 0.00 85 1015.8
20260902001522 28 109 0.0 0.0 0.00 0.00 0.00 84 1015.7
20260902001324 28 109 0.0 0.0 0.00 0.00 0.00 84 1015.9
20260902000821 28 139 0.0 0.0 0.00 0.00 0.00 84 1015.9
20260902000322 28 139 0.0 0.0 0.00 0.00 0.00 84 1015.9
20260902000008 28 139 0.0 0.0 0.00 0.00 0.00 84 1015.8
20260901235815 28 139 0.0 0.0 0.00 0.00 0.00 84 1016.0
20260901235329 28 139 0.0 0.0 0.00 0.00 0.00 84 1016.1
20260901234826 28 139 0.0 0.0 0.00 0.00 0.00 84 1016.1
20260901234556 28 138 0.0 0.0 0.00 0.00 0.00 84 1015.9
20260901234322 28 63 0.0 0.0 0.00 0.00 0.00 84 1016.0
20260901233838 28 63 0.0 0.0 0.00 0.00 0.00 83 1016.0
20260901233334 28 63 0.0 0.0 0.00 0.00 0.00 83 1016.0
20260901233019 28 63 0.0 0.0 0.00 0.00 0.00 83 1015.7
20260901232852 28 63 0.0 0.0 0.00 0.00 0.00 83 1016.0
20260901232326 28 63 0.0 0.0 0.00 0.00 0.00 83 1016.0
20260901231822 28 63 0.0 0.0 0.00 0.00 0.00 83 1016.0
20260901231544 28 63 0.0 0.0 0.00 0.00 0.00 83 1015.7
20260901231339 28 63 0.0 0.0 0.00 0.00 0.00 83 1015.8
20260901230816 28 73 0.0 0.0 0.00 0.00 0.00 83 1015.7
20260901230334 28 55 0.0 0.0 0.00 0.00 0.00 83 1015.8
20260901230014 28 128 0.0 0.0 0.00 0.00 0.00 83 1015.7
20260901225831 29 127 0.0 3.2 0.00 0.00 0.00 83 1015.8
20260901225327 29 77 0.0 3.2 0.00 0.00 0.00 83 1015.6
20260901224825 29 147 1.6 4.8 0.00 0.00 0.00 83 1015.6
20260901224558 28 55 0.0 4.8 0.00 0.00 0.00 83 1015.5
20260901224323 29 84 3.2 4.8 0.00 0.00 0.00 84 1015.5
20260901223820 29 124 0.0 3.2 0.00 0.00 0.00 85 1015.6
20260901223318 29 47 0.0 6.4 0.00 0.00 0.00 85 1015.4
20260901223056 28 97 1.6 6.4 0.00 0.00 0.00 85 1015.3
20260901222815 28 120 3.2 6.4 0.00 0.00 0.00 85 1015.4
20260901222314 28 68 0.0 4.8 0.00 0.00 0.00 85 1015.3
20260901221833 28 155 0.0 4.8 0.00 0.00 0.00 85 1015.4
20260901221530 28 57 1.6 4.8 0.00 0.00 0.00 85 1015.3
20260901221316 28 51 1.6 4.8 0.00 0.00 0.00 86 1015.5
20260901220834 28 44 0.0 3.2 0.00 0.00 0.00 86 1015.7
20260901220332 28 49 0.0 1.6 0.00 0.00 0.00 87 1015.8
20260901220014 28 48 0.0 0.0 0.00 0.00 0.00 88 1015.7
20260901215831 28 49 0.0 3.2 0.00 0.00 0.00 88 1015.8
20260901215329 28 9 0.0 4.8 0.00 0.00 0.00 87 1015.6
20260901214826 28 23 0.0 4.8 0.00 0.00 0.00 88 1015.6
20260901214502 28 13 0.0 4.8 0.00 0.00 0.00 89 1015.6
20260901214324 28 353 0.0 3.2 0.00 0.00 0.00 89 1015.7
20260901213843 28 8 0.0 6.4 0.00 0.00 0.00 89 1015.7
20260901213322 28 42 3.2 6.4 0.00 0.00 0.00 89 1015.5
20260901213102 28 340 3.2 4.8 0.00 0.00 0.00 89 1015.5
20260901212820 28 27 0.0 4.8 0.00 0.00 0.00 89 1015.5
20260901212319 28 39 1.6 3.2 0.00 0.00 0.00 89 1015.4
20260901211922 28 25 0.0 3.2 0.00 0.00 0.00 89 1015.3
20260901211534 27 25 0.0 3.2 0.00 0.00 0.00 89 1015.2
20260901211335 28 25 1.6 3.2 0.00 0.00 0.00 89 1015.2
20260901210854 28 49 1.6 3.2 0.00 0.00 0.00 89 1015.1
20260901210331 28 43 1.6 3.2 0.00 0.00 0.00 90 1015.2
20260901210004 27 44 0.0 3.2 0.00 0.00 0.00 90 1015.0
20260901205829 28 40 0.0 3.2 0.00 0.00 0.00 90 1015.2
20260901205326 27 52 0.0 3.2 0.00 0.00 0.00 90 1015.2
20260901204823 27 41 0.0 0.0 0.00 0.00 0.00 90 1015.1
20260901204554 27 41 0.0 3.2 0.00 0.00 0.00 90 1015.0
20260901204321 27 41 0.0 3.2 0.00 0.00 0.00 91 1015.1
20260901203820 27 41 0.0 3.2 0.00 0.00 0.00 90 1015.0
20260901203318 27 43 1.6 4.8 0.00 0.00 0.00 90 1015.0
20260901203051 27 39 1.6 4.8 0.00 0.00 0.00 90 1014.9
20260901202817 27 43 3.2 4.8 0.00 0.00 0.00 90 1014.9
20260901202315 27 15 1.6 4.8 0.00 0.00 0.00 90 1015.1
20260901201834 27 53 1.6 1.6 0.00 0.00 0.00 90 1015.2
20260901201530 27 46 0.0 0.0 0.00 0.00 0.00 90 1015.1
20260901201330 27 46 0.0 3.2 0.00 0.00 0.00 90 1015.3
20260901200828 27 46 0.0 6.4 0.00 0.00 0.00 90 1015.4
20260901200346 27 56 3.2 6.4 0.00 0.00 0.00 89 1015.5
20260901200028 27 41 0.0 6.4 0.00 0.00 0.00 90 1015.3
20260901195823 27 54 1.6 6.4 0.00 0.00 0.00 89 1015.5
20260901195318 27 41 3.2 6.4 0.00 0.00 0.00 89 1015.4
20260901194834 27 45 1.6 4.8 0.00 0.00 0.00 90 1015.5
20260901194516 27 55 0.0 3.2 0.00 0.00 0.00 89 1015.4
20260901194352 27 115 0.0 3.2 0.00 0.00 0.00 90 1015.6
20260901193829 27 58 0.0 3.2 0.00 0.00 0.00 90 1015.5
20260901193328 27 154 0.0 0.0 0.00 0.00 0.00 90 1015.6
20260901193038 27 46 0.0 3.2 0.00 0.00 0.00 90 1015.5
20260901192844 27 44 0.0 3.2 0.00 0.00 0.00 90 1015.6
20260901192321 27 46 0.0 3.2 0.00 0.00 0.00 90 1015.8
20260901191838 27 50 0.0 3.2 0.00 0.00 0.00 90 1016.0
20260901191613 27 50 0.0 3.2 0.00 0.00 0.00 90 1015.8
20260901191355 27 50 0.0 3.2 0.00 0.00 0.00 90 1016.0
20260901190851 27 46 0.0 3.2 0.00 0.00 0.00 90 1015.9
20260901190328 27 123 0.0 0.0 0.00 0.00 0.00 90 1016.0
20260901190004 26 120 0.0 0.0 0.00 0.00 0.00 90 1015.9
20260901185845 26 56 0.0 0.0 0.00 0.00 0.00 90 1016.2
20260901185322 26 39 0.0 0.0 0.00 0.00 0.00 90 1016.4
20260901184820 26 39 0.0 0.0 0.00 0.00 0.00 89 1016.5
20260901184525 26 39 0.0 1.6 0.00 0.00 0.00 89 1016.5
20260901184319 26 360 0.0 1.6 0.00 0.00 0.00 89 1016.7
20260901183817 26 359 0.0 1.6 0.00 0.00 0.00 89 1016.5
20260901183330 26 53 0.0 0.0 0.00 0.00 0.00 89 1016.7
20260901183057 26 53 0.0 0.0 0.00 0.00 0.00 90 1016.7
20260901182826 26 53 0.0 0.0 0.00 0.00 0.00 90 1016.9
20260901182324 26 53 0.0 3.2 0.00 0.00 0.00 89 1017.0
20260901181822 26 53 1.6 6.4 0.00 0.00 0.00 90 1017.1
20260901181555 26 55 0.0 6.4 0.00 0.00 0.00 90 1017.0
20260901181320 26 41 1.6 6.4 0.00 0.00 0.00 89 1017.1
20260901180817 26 356 3.2 6.4 0.00 0.00 0.00 89 1017.2
20260901180333 26 353 3.2 8.0 0.00 0.00 0.00 88 1017.3
20260901180024 26 354 3.2 11.3 0.00 0.00 0.00 88 1017.3
20260901175832 26 20 1.6 11.3 0.00 0.00 0.00 88 1017.3
20260901175348 26 337 6.4 16.1 0.00 0.00 0.00 87 1017.4
20260901174824 26 321 9.7 16.1 0.00 0.00 0.00 86 1017.4
20260901174554 26 328 8.0 19.3 0.00 0.00 0.00 85 1017.3
20260901174340 27 347 9.7 19.3 0.00 0.00 0.00 85 1017.4
20260901173815 27 333 6.4 19.3 0.00 0.00 0.00 84 1017.4
20260901173334 27 20 8.0 24.1 0.00 0.00 0.00 83 1017.3
20260901173007 28 23 11.3 24.1 0.00 0.00 0.00 83 1017.0
20260901172831 28 24 14.5 24.1 0.00 0.00 0.00 82 1017.2
20260901172328 30 40 8.0 14.5 0.00 0.00 0.00 82 1017.0
20260901171824 30 91 8.0 14.5 0.00 0.00 0.00 82 1016.9
20260901171536 30 122 8.0 14.5 0.00 0.00 0.00 82 1016.7
20260901171342 30 141 8.0 14.5 0.00 0.00 0.00 82 1016.9
20260901170836 30 94 9.7 14.5 0.00 0.00 0.00 82 1016.9
20260901170352 30 125 6.4 14.5 0.00 0.00 0.00 82 1017.0
20260901170026 30 125 4.8 14.5 0.00 0.00 0.00 82 1017.0
20260901165829 30 145 6.4 14.5 0.00 0.00 0.00 82 1017.1
20260901165329 30 95 4.8 14.5 0.00 0.00 0.00 82 1017.2
20260901164824 30 136 4.8 11.3 0.00 0.00 0.00 82 1017.2
20260901164514 30 66 3.2 11.3 0.00 0.00 0.00 81 1017.0
20260901164321 31 139 4.8 11.3 0.00 0.00 0.00 81 1017.2
20260901163839 31 87 6.4 11.3 0.00 0.00 0.00 80 1017.1
20260901163333 31 4 0.0 0.0 0.00 0.00 0.00 78 1017.1
20260901163035 31 4 0.0 1.6 0.00 0.00 0.00 79 1017.0
20260901162829 32 4 0.0 1.6 0.00 0.00 0.00 79 1017.1
20260901162325 32 5 0.0 3.2 0.00 0.00 0.00 78 1017.1
20260901161822 32 331 0.0 1.6 0.00 0.00 0.00 78 1017.0
20260901161537 32 289 0.0 4.8 0.00 0.00 0.00 79 1016.9
20260901161319 32 289 0.0 4.8 0.00 0.00 0.00 79 1017.1
20260901160816 32 355 1.6 6.4 0.00 0.00 0.00 78 1017.1
20260901160334 32 10 3.2 8.0 0.00 0.00 0.00 79 1017.0
20260901160023 31 25 3.2 8.0 0.00 0.00 0.00 77 1016.9
20260901155851 32 52 3.2 8.0 0.00 0.00 0.00 77 1017.1
20260901155342 31 131 0.0 8.0 0.00 0.00 0.00 79 1017.1
20260901154818 31 350 3.2 8.0 0.00 0.00 0.00 78 1017.1
20260901154521 31 44 3.2 6.4 0.00 0.00 0.00 78 1017.0
20260901154334 32 18 3.2 6.4 0.00 0.00 0.00 77 1017.1
20260901153831 32 41 0.0 3.2 0.00 0.00 0.00 78 1017.1
20260901153327 32 40 0.0 4.8 0.00 0.00 0.00 79 1017.2
20260901153005 31 40 1.6 4.8 0.00 0.00 0.00 78 1017.1
20260901152823 32 19 1.6 4.8 0.00 0.00 0.00 79 1017.2
20260901152321 32 53 0.0 3.2 0.00 0.00 0.00 80 1017.3
20260901151817 32 124 1.6 3.2 0.00 0.00 0.00 79 1017.3
20260901151541 31 116 0.0 0.0 0.00 0.00 0.00 80 1017.2
20260901151333 32 150 0.0 0.0 0.00 0.00 0.00 81 1017.3
20260901150830 31 24 0.0 1.6 0.00 0.00 0.00 79 1017.3
20260901150348 31 22 0.0 6.4 0.00 0.00 0.00 80 1017.4
20260901150012 31 23 0.0 6.4 0.00 0.00 0.00 80 1017.2
20260901145824 31 332 3.2 6.4 0.00 0.00 0.00 79 1017.3
20260901145322 31 60 1.6 6.4 0.00 0.00 0.00 80 1017.3
20260901144819 31 130 1.6 8.0 0.00 0.00 0.00 81 1017.2
20260901144552 31 130 1.6 8.0 0.00 0.00 0.00 81 1017.1
20260901144315 31 357 1.6 8.0 0.00 0.00 0.00 81 1017.1
20260901143831 31 71 4.8 8.0 0.00 0.00 0.00 80 1017.1
20260901143347 31 118 0.0 1.6 0.00 0.00 0.00 82 1017.1
20260901143019 31 28 0.0 4.8 0.00 0.00 0.00 81 1017.0
20260901142842 31 7 0.0 4.8 0.00 0.00 0.00 81 1017.1
20260901142316 31 276 0.0 0.0 0.00 0.00 0.00 81 1017.0
20260901141832 31 8 0.0 3.2 0.00 0.00 0.00 82 1017.0
20260901141535 31 34 0.0 4.8 0.00 0.00 0.00 82 1016.8
20260901141350 31 291 0.0 4.8 0.00 0.00 0.00 82 1016.9
20260901140828 30 29 1.6 4.8 0.00 0.00 0.00 82 1016.8
20260901140326 30 3 1.6 4.8 0.00 0.00 0.00 82 1016.9
20260901140055 30 354 0.0 4.8 0.00 0.00 0.00 83 1016.7
20260901135842 30 354 3.2 4.8 0.00 0.00 0.00 82 1016.8
20260901135318 30 27 3.2 6.4 0.00 0.00 0.00 83 1016.8
20260901134835 30 348 1.6 8.0 0.00 0.00 0.00 83 1016.8
20260901134522 29 340 3.2 8.0 0.00 0.00 0.00 83 1016.6
20260901134352 30 40 4.8 8.0 0.00 0.00 0.00 83 1016.7
20260901133828 30 355 3.2 6.4 0.00 0.00 0.00 83 1016.8
20260901133322 30 14 4.8 6.4 0.00 0.00 0.00 83 1016.8
20260901133034 30 2 1.6 6.4 0.00 0.00 0.00 84 1016.6
20260901132839 30 13 1.6 9.7 0.00 0.00 0.00 83 1016.7
20260901132350 30 343 1.6 9.7 0.00 0.00 0.00 83 1016.7
20260901131826 29 351 1.6 8.0 0.00 0.00 0.00 84 1016.8
20260901131556 29 346 3.2 8.0 0.00 0.00 0.00 84 1016.6
20260901131324 29 349 1.6 8.0 0.00 0.00 0.00 84 1016.7
20260901130819 29 344 0.0 6.4 0.00 0.00 0.00 84 1016.7
20260901130045 29 20 0.0 4.8 0.00 0.00 0.00 85 1016.7
20260901125850 29 346 0.0 4.8 0.00 0.00 0.00 85 1016.8
20260901125326 29 360 0.0 0.0 0.00 0.00 0.00 86 1016.7
20260901124822 28 360 0.0 0.0 0.00 0.00 0.00 88 1016.7
20260901124520 28 360 0.0 0.0 0.00 0.00 0.00 89 1016.5
20260901124318 28 360 0.0 0.0 0.00 0.00 0.00 89 1016.8
20260901123835 27 360 0.0 0.0 0.00 0.00 0.00 89 1016.7
20260901123350 27 329 0.0 0.0 0.00 0.00 0.00 89 1016.6
20260901123039 27 329 0.0 0.0 0.00 0.00 0.00 89 1016.6
20260901122826 27 329 0.0 0.0 0.00 0.00 0.00 89 1016.6
20260901122321 27 329 0.0 0.0 0.00 0.00 0.00 89 1016.5
20260901121816 27 329 0.0 0.0 0.00 0.00 0.00 90 1016.5
20260901121549 26 329 0.0 1.6 0.00 0.00 0.00 91 1016.4
20260901121332 27 329 0.0 1.6 0.00 0.00 0.00 91 1016.5
20260901120828 26 329 0.0 1.6 0.00 0.00 0.00 91 1016.5
20260901120325 26 6 0.0 0.0 0.00 0.00 0.00 92 1016.5
20260901120042 26 352 0.0 0.0 0.00 0.00 0.00 92 1016.3
20260901115820 26 352 0.0 0.0 0.00 0.00 0.00 92 1016.5
20260901115316 26 352 0.0 0.0 0.00 0.00 0.00 93 1016.3
20260901114814 25 352 0.0 0.0 0.00 0.00 0.00 93 1016.3
20260901114513 25 352 0.0 0.0 0.00 0.00 0.00 93 1016.1
20260901114331 25 352 0.0 0.0 0.00 0.00 0.00 93 1016.2
20260901113828 25 352 0.0 0.0 0.00 0.00 0.00 93 1016.1
20260901113326 25 352 0.0 0.0 0.00 0.00 0.00 93 1016.2
20260901113103 25 352 0.0 0.0 0.00 0.00 0.00 93 1016.0
20260901112823 25 352 0.0 0.0 0.00 0.00 0.00 93 1016.1
20260901112319 25 352 0.0 0.0 0.00 0.00 0.00 93 1016.0
20260901111816 25 352 0.0 0.0 0.00 0.00 0.00 93 1015.9
20260901111602 25 352 0.0 0.0 0.00 0.00 0.00 93 1015.7
20260901111333 25 352 0.0 0.0 0.00 0.00 0.00 93 1015.8
20260901110829 25 350 0.0 0.0 0.00 0.00 0.00 93 1015.7
20260901110323 25 350 0.0 0.0 0.00 0.00 0.00 93 1015.8
20260901110037 25 350 0.0 0.0 0.00 0.00 0.00 93 1015.6
20260901105820 25 350 0.0 0.0 0.00 0.00 0.00 93 1015.8
20260901105319 25 350 0.0 0.0 0.00 0.00 0.00 93 1015.6
20260901104817 25 350 0.0 0.0 0.00 0.00 0.00 93 1015.8
20260901104521 25 350 0.0 0.0 0.00 0.00 0.00 92 1015.6
20260901104334 25 350 0.0 0.0 0.00 0.00 0.00 92 1015.8
20260901103831 25 350 0.0 1.6 0.00 0.00 0.00 93 1015.7
20260901103327 25 350 0.0 0.0 0.00 0.00 0.00 93 1015.8
20260901103011 25 350 0.0 0.0 0.00 0.00 0.00 92 1015.6
20260901102822 25 350 0.0 1.6 0.00 0.00 0.00 93 1015.8
20260901102338 25 350 0.0 1.6 0.00 0.00 0.00 93 1015.6
20260901101829 25 350 0.0 0.0 0.00 0.00 0.00 93 1015.7
20260901101532 25 350 0.0 1.6 0.00 0.00 0.00 93 1015.4
20260901101325 25 350 0.0 1.6 0.00 0.00 0.00 93 1015.7